Location: Carri�res
(48.9069°N, 2.1792°E)
Time: 05:54:15
(UTC+00:00)

SeaSat 1 - Pass Details

Date: 11 May 2021
Orbit: 744 x 747 km, 108.0° (Epoch: 12 June)

Event Time Altitude Azimuth Distance (km) Brightness Sun altitude
Rises 01:21:56 0° 23° (NNE) 3,203 7.4 -20.0°
Reaches altitude 10° 01:24:23 10° 14° (NNE) 2,275 6.1 -19.8°
Maximum altitude 01:28:43 32° 313° (NW) 1,278 3.8 -19.5°
Enters shadow 01:31:30 18° 263° (W) 1,755 4.1 -19.3°
